User: anonymous   Login
Location: Asheville, NC
(35.6000°N, 82.5500°W)
Time: 06:17:20
(UTC-04:00)
Language:

CUBEBUG 2 - Orbit

View from above orbital plane
View from above orbital plane
View from above satellite
View from above satellite

Ground track
Ground track

The orbit data is extracted from the following two-line orbital elements,

1 39440U 13066AA  18262.79756826  .00000161  00000-0  29693-4 0  9996
2 39440  97.6011 272.4104 0078990 247.8699 111.4113 14.75720830259874
Epoch (UTC): 19 September 2018 19:08:29
Eccentricity: 0.0078990
inclination: 97.6011°
perigee height: 587 km
apogee height: 698 km
right ascension of ascending node: 272.4104°
argument of perigee: 247.8699°
revolutions per day: 14.75720830
mean anomaly at epoch: 111.4113°
orbit number at epoch: 25987

The dashed part of the orbit path shows where the satellite is in the earth's shadow,  

DLR